Time,TemperatureF,DewpointF,PressureIn,WindDirection,WindDirectionDegrees,WindSpeedMPH,WindSpeedGustMPH,Humidity,HourlyPrecipIn,Conditions,Clouds,dailyrainin,SoftwareType,DateUTC
2013-11-02 00:00:00,77.1,71.9,29.90,SSW,202,4.6,4.7,84,0.00,CLR,,0.00,WeatherDisplay:10.37,2013-11-02 04:00:00,
2013-11-02 00:01:00,77.1,71.9,29.90,SW,214,5.8,5.8,84,0.00,CLR,,0.00,WeatherDisplay:10.37,2013-11-02 04:01:00,
2013-11-02 00:02:00,77.1,71.9,29.90,South,186,11.0,11.0,84,0.00,CLR,,0.00,WeatherDisplay:10.37,2013-11-02 04:02:00,
2013-11-02 00:07:00,77.1,71.9,29.90,South,187,8.1,8.1,84,0.00,CLR,,0.00,WeatherDisplay:10.37,2013-11-02 04:07:00,
2013-11-02 00:12:00,77.1,72.2,29.90,SSW,207,5.8,5.8,85,0.00,CLR,,0.00,WeatherDisplay:10.37,2013-11-02 04:12:00,
2013-11-02 00:17:00,76.9,71.7,29.89,SSW,208,7.0,7.0,84,0.00,CLR,,0.00,WeatherDisplay:10.37,2013-11-02 04:17:00,
2013-11-02 00:22:00,76.7,71.8,29.89,SSW,194,5.8,5.8,85,0.00,CLR,,0.00,WeatherDisplay:10.37,2013-11-02 04:22:00,
2013-11-02 00:27:00,76.6,71.7,29.89,SSW,212,3.5,3.5,85,0.00,CLR,,0.00,WeatherDisplay:10.37,2013-11-02 04:27:00,
2013-11-02 00:32:00,76.5,72.0,29.89,SSW,198,6.9,6.9,86,0.00,CLR,,0.00,WeatherDisplay:10.37,2013-11-02 04:32:00,
2013-11-02 00:37:00,76.4,71.9,29.89,SW,232,6.9,6.9,86,0.00,CLR,,0.00,WeatherDisplay:10.37,2013-11-02 04:37:00,
2013-11-02 00:42:00,76.4,71.9,29.89,SSW,198,6.0,6.2,86,0.00,CLR,,0.00,WeatherDisplay:10.37,2013-11-02 04:42:00,
2013-11-02 00:47:00,76.3,71.8,29.89,SW,220,5.0,5.0,86,0.00,CLR,,0.00,WeatherDisplay:10.37,2013-11-02 04:47:00,
2013-11-02 00:52:00,76.1,71.6,29.89,SW,222,5.8,5.8,86,0.00,CLR,,0.00,WeatherDisplay:10.37,2013-11-02 04:52:00,
2013-11-02 00:57:00,75.9,71.8,29.89,SW,221,6.9,6.9,87,0.00,CLR,,0.00,WeatherDisplay:10.37,2013-11-02 04:57:00,
2013-11-02 01:02:00,75.8,71.7,29.88,SW,215,5.0,5.0,87,0.00,CLR,,0.00,WeatherDisplay:10.37,2013-11-02 05:02:00,
2013-11-02 01:07:00,75.7,71.6,29.88,SSW,213,4.6,5.0,87,0.00,CLR,,0.00,WeatherDisplay:10.37,2013-11-02 05:07:00,
2013-11-02 01:12:00,75.5,71.7,29.88,SW,215,6.9,6.9,88,0.00,CLR,,0.00,WeatherDisplay:10.37,2013-11-02 05:12:00,
2013-11-02 01:17:00,75.5,71.7,29.88,SSW,213,5.8,5.8,88,0.00,CLR,,0.00,WeatherDisplay:10.37,2013-11-02 05:17:00,
2013-11-02 01:22:00,75.4,71.6,29.88,SSW,204,8.1,8.1,88,0.00,CLR,,0.00,WeatherDisplay:10.37,2013-11-02 05:22:00,
2013-11-02 01:27:00,75.4,71.6,29.88,SSW,205,5.0,5.0,88,0.00,CLR,,0.00,WeatherDisplay:10.37,2013-11-02 05:27:00,
2013-11-02 01:32:00,75.4,71.6,29.88,WSW,246,8.1,8.1,88,0.00,CLR,,0.00,WeatherDisplay:10.37,2013-11-02 05:32:00,
2013-11-02 01:37:00,75.2,71.4,29.88,WSW,245,3.5,3.5,88,0.00,CLR,,0.00,WeatherDisplay:10.37,2013-11-02 05:37:00,
2013-11-02 01:42:00,74.8,71.3,29.88,WSW,245,3.5,3.5,89,0.00,CLR,,0.00,WeatherDisplay:10.37,2013-11-02 05:42:00,
2013-11-02 01:47:00,74.6,71.1,29.88,SW,234,3.5,3.5,89,0.00,CLR,,0.00,WeatherDisplay:10.37,2013-11-02 05:47:00,
2013-11-02 01:52:00,74.4,71.3,29.88,West,262,3.5,3.5,90,0.00,CLR,,0.00,WeatherDisplay:10.37,2013-11-02 05:52:00,
2013-11-02 01:57:00,74.3,71.2,29.88,West,262,3.5,3.5,90,0.00,CLR,,0.00,WeatherDisplay:10.37,2013-11-02 05:57:00,
2013-11-02 02:02:00,74.2,71.4,29.88,WSW,258,3.5,3.5,91,0.00,CLR,,0.00,WeatherDisplay:10.37,2013-11-02 06:02:00,
2013-11-02 02:07:00,74.2,71.4,29.88,WSW,258,3.5,3.5,91,0.00,CLR,,0.00,WeatherDisplay:10.37,2013-11-02 06:07:00,
2013-11-02 02:12:00,74.0,71.2,29.88,WSW,248,3.0,3.0,91,0.00,CLR,,0.00,WeatherDisplay:10.37,2013-11-02 06:12:00,
2013-11-02 02:17:00,73.9,71.1,29.88,WSW,252,3.5,3.5,91,0.00,CLR,,0.00,WeatherDisplay:10.37,2013-11-02 06:17:00,
2013-11-02 02:22:00,73.8,71.0,29.87,WSW,254,3.5,3.5,91,0.00,CLR,,0.00,WeatherDisplay:10.37,2013-11-02 06:22:00,
2013-11-02 02:27:00,73.7,71.2,29.87,WSW,254,2.3,2.3,92,0.00,CLR,,0.00,WeatherDisplay:10.37,2013-11-02 06:27:00,
2013-11-02 02:32:00,73.6,71.1,29.87,SW,229,3.0,3.0,92,0.00,CLR,,0.00,WeatherDisplay:10.37,2013-11-02 06:32:00,
2013-11-02 02:37:00,73.5,71.0,29.87,SW,227,2.3,2.3,92,0.00,CLR,,0.00,WeatherDisplay:10.37,2013-11-02 06:37:00,
2013-11-02 02:42:00,73.5,71.0,29.87,SW,231,3.5,3.5,92,0.00,CLR,,0.00,WeatherDisplay:10.37,2013-11-02 06:42:00,
2013-11-02 02:47:00,73.4,70.9,29.86,SW,233,2.3,2.3,92,0.00,CLR,,0.00,WeatherDisplay:10.37,2013-11-02 06:47:00,
2013-11-02 02:52:00,73.3,71.2,29.86,WSW,250,2.3,2.3,93,0.00,CLR,,0.00,WeatherDisplay:10.37,2013-11-02 06:52:00,
2013-11-02 02:57:00,73.2,71.1,29.86,WSW,249,2.3,2.3,93,0.00,CLR,,0.00,WeatherDisplay:10.37,2013-11-02 06:57:00,
2013-11-02 03:02:00,73.1,71.0,29.86,WSW,249,2.3,2.3,93,0.00,CLR,,0.00,WeatherDisplay:10.37,2013-11-02 07:02:00,
2013-11-02 03:07:00,73.0,70.9,29.86,WSW,249,3.5,3.5,93,0.00,CLR,,0.00,WeatherDisplay:10.37,2013-11-02 07:07:00,
2013-11-02 03:12:00,72.9,71.1,29.86,WSW,249,2.3,2.3,94,0.00,CLR,,0.00,WeatherDisplay:10.37,2013-11-02 07:12:00,
2013-11-02 03:17:00,72.8,71.0,29.86,WSW,252,3.5,3.5,94,0.00,CLR,,0.00,WeatherDisplay:10.37,2013-11-02 07:17:00,
2013-11-02 03:22:00,72.8,71.0,29.86,WSW,254,3.5,0.0,94,0.00,CLR,,0.00,WeatherDisplay:10.37,2013-11-02 07:22:00,
2013-11-02 03:27:00,72.8,71.0,29.86,WSW,254,1.2,1.2,94,0.00,CLR,,0.00,WeatherDisplay:10.37,2013-11-02 07:27:00,
2013-11-02 03:32:00,72.8,71.0,29.86,WSW,254,1.2,1.2,94,0.00,CLR,,0.00,WeatherDisplay:10.37,2013-11-02 07:32:00,
2013-11-02 03:37:00,72.7,70.9,29.86,WSW,254,2.3,2.3,94,0.00,CLR,,0.00,WeatherDisplay:10.37,2013-11-02 07:37:00,
2013-11-02 03:42:00,72.7,70.9,29.85,WSW,254,1.2,1.2,94,0.00,CLR,,0.00,WeatherDisplay:10.37,2013-11-02 07:42:00,
2013-11-02 03:47:00,72.7,70.9,29.85,WSW,254,1.2,0.0,94,0.00,CLR,,0.00,WeatherDisplay:10.37,2013-11-02 07:47:00,
2013-11-02 03:52:00,72.6,70.8,29.85,WSW,254,2.3,2.3,94,0.00,CLR,,0.00,WeatherDisplay:10.37,2013-11-02 07:52:00,
2013-11-02 03:57:00,72.6,70.8,29.85,WSW,254,1.2,0.0,94,0.00,CLR,,0.00,WeatherDisplay:10.37,2013-11-02 07:57:00,
2013-11-02 04:02:00,72.5,70.7,29.84,WSW,254,0.0,0.0,94,0.00,CLR,,0.00,WeatherDisplay:10.37,2013-11-02 08:02:00,
2013-11-02 04:07:00,72.4,70.6,29.84,WSW,254,1.0,1.0,94,0.00,CLR,,0.00,WeatherDisplay:10.37,2013-11-02 08:07:00,
2013-11-02 04:12:00,72.3,70.5,29.84,WSW,254,1.2,1.2,94,0.00,CLR,,0.00,WeatherDisplay:10.37,2013-11-02 08:12:00,
2013-11-02 04:17:00,72.2,70.4,29.84,WSW,254,1.2,1.2,94,0.00,CLR,,0.00,WeatherDisplay:10.37,2013-11-02 08:17:00,
2013-11-02 04:22:00,72.1,70.3,29.84,WSW,254,2.0,2.0,94,0.00,CLR,,0.00,WeatherDisplay:10.37,2013-11-02 08:22:00,
2013-11-02 04:27:00,72.1,70.3,29.84,WSW,254,1.2,0.0,94,0.00,CLR,,0.00,WeatherDisplay:10.37,2013-11-02 08:27:00,
2013-11-02 04:32:00,72.0,70.2,29.84,WSW,254,0.0,0.0,94,0.00,CLR,,0.00,WeatherDisplay:10.37,2013-11-02 08:32:00,
2013-11-02 04:37:00,72.0,70.2,29.84,WSW,254,1.2,1.2,94,0.00,CLR,,0.00,WeatherDisplay:10.37,2013-11-02 08:37:00,
2013-11-02 04:42:00,72.0,70.2,29.84,WSW,254,1.0,1.0,94,0.00,CLR,,0.00,WeatherDisplay:10.37,2013-11-02 08:42:00,
2013-11-02 04:47:00,72.0,70.2,29.84,WSW,254,0.0,0.0,94,0.00,CLR,,0.00,WeatherDisplay:10.37,2013-11-02 08:47:00,
2013-11-02 04:52:00,71.9,70.1,29.84,WSW,254,0.0,0.0,94,0.00,CLR,,0.00,WeatherDisplay:10.37,2013-11-02 08:52:00,
2013-11-02 04:57:00,71.8,70.0,29.83,WSW,254,0.0,0.0,94,0.00,CLR,,0.00,WeatherDisplay:10.37,2013-11-02 08:57:00,
2013-11-02 05:02:00,71.7,69.9,29.83,WSW,254,0.0,0.0,94,0.00,CLR,,0.00,WeatherDisplay:10.37,2013-11-02 09:02:00,
2013-11-02 05:07:00,71.6,69.8,29.83,WSW,254,0.0,0.0,94,0.00,CLR,,0.00,WeatherDisplay:10.37,2013-11-02 09:07:00,
2013-11-02 05:12:00,71.7,70.2,29.83,WSW,254,0.0,0.0,95,0.00,CLR,,0.00,WeatherDisplay:10.37,2013-11-02 09:12:00,
2013-11-02 05:17:00,71.7,70.2,29.83,WSW,254,0.0,0.0,95,0.00,CLR,,0.00,WeatherDisplay:10.37,2013-11-02 09:17:00,
2013-11-02 05:22:00,71.4,69.6,29.83,WSW,254,0.0,0.0,94,0.00,CLR,,0.00,WeatherDisplay:10.37,2013-11-02 09:22:00,
2013-11-02 05:27:00,71.4,69.6,29.83,WSW,254,0.0,0.0,94,0.00,CLR,,0.00,WeatherDisplay:10.37,2013-11-02 09:27:00,
2013-11-02 05:32:00,71.3,69.8,29.83,WSW,254,0.0,0.0,95,0.00,CLR,,0.00,WeatherDisplay:10.37,2013-11-02 09:32:00,
2013-11-02 05:37:00,71.3,69.8,29.83,SW,228,0.0,0.0,95,0.00,CLR,,0.00,WeatherDisplay:10.37,2013-11-02 09:37:00,
2013-11-02 05:42:00,71.3,69.8,29.83,SW,228,0.0,0.0,95,0.00,CLR,,0.00,WeatherDisplay:10.37,2013-11-02 09:42:00,
2013-11-02 05:47:00,71.4,69.9,29.84,SW,217,0.0,0.0,95,0.00,CLR,,0.00,WeatherDisplay:10.37,2013-11-02 09:47:00,
2013-11-02 05:52:00,71.5,70.0,29.83,SSW,205,1.2,1.2,95,0.00,CLR,,0.00,WeatherDisplay:10.37,2013-11-02 09:52:00,
2013-11-02 05:57:00,71.4,69.9,29.84,SSW,205,1.2,0.0,95,0.00,CLR,,0.00,WeatherDisplay:10.37,2013-11-02 09:57:00,
2013-11-02 06:02:00,71.3,69.8,29.84,SSW,205,2.3,2.3,95,0.00,CLR,,0.00,WeatherDisplay:10.37,2013-11-02 10:02:00,
2013-11-02 06:07:00,71.3,69.8,29.84,SSW,205,0.0,0.2,95,0.00,CLR,,0.00,WeatherDisplay:10.37,2013-11-02 10:07:00,
2013-11-02 06:12:00,71.3,69.8,29.84,SSW,205,0.0,0.0,95,0.00,CLR,,0.00,WeatherDisplay:10.37,2013-11-02 10:12:00,
2013-11-02 06:17:00,71.3,69.8,29.84,SSW,205,0.0,0.0,95,0.00,CLR,,0.00,WeatherDisplay:10.37,2013-11-02 10:17:00,
2013-11-02 06:22:00,71.3,69.8,29.84,SSW,205,0.0,0.0,95,0.00,CLR,,0.00,WeatherDisplay:10.37,2013-11-02 10:22:00,
2013-11-02 06:27:00,71.3,69.8,29.84,SSW,205,1.2,1.2,95,0.00,CLR,,0.00,WeatherDisplay:10.37,2013-11-02 10:27:00,
2013-11-02 06:32:00,71.3,69.8,29.84,SSW,205,0.0,0.0,95,0.00,CLR,,0.00,WeatherDisplay:10.37,2013-11-02 10:32:00,
2013-11-02 06:37:00,71.3,69.8,29.84,SSW,205,0.0,0.0,95,0.00,CLR,,0.00,WeatherDisplay:10.37,2013-11-02 10:37:00,
2013-11-02 06:42:00,71.2,69.7,29.84,SSW,205,2.0,2.0,95,0.00,CLR,,0.00,WeatherDisplay:10.37,2013-11-02 10:42:00,
2013-11-02 06:47:00,71.2,69.7,29.84,SSW,205,0.0,0.1,95,0.00,CLR,,0.00,WeatherDisplay:10.37,2013-11-02 10:47:00,
2013-11-02 06:52:00,71.2,69.7,29.84,SSW,204,1.2,1.2,95,0.00,CLR,,0.00,WeatherDisplay:10.37,2013-11-02 10:52:00,
2013-11-02 06:57:00,71.3,69.8,29.85,SSW,204,1.2,1.2,95,0.00,CLR,,0.00,WeatherDisplay:10.37,2013-11-02 10:57:00,
2013-11-02 07:02:00,71.3,69.8,29.85,SSW,204,2.3,2.3,95,0.00,CLR,,0.00,WeatherDisplay:10.37,2013-11-02 11:02:00,
2013-11-02 07:07:00,71.3,69.8,29.84,SSW,199,1.0,1.0,95,0.00,CLR,,0.00,WeatherDisplay:10.37,2013-11-02 11:07:00,
2013-11-02 07:12:00,71.3,69.8,29.84,SSW,198,2.3,2.3,95,0.00,CLR,,0.00,WeatherDisplay:10.37,2013-11-02 11:12:00,
2013-11-02 07:17:00,71.3,69.5,29.84,SSW,199,2.3,0.0,94,0.00,CLR,,0.00,WeatherDisplay:10.37,2013-11-02 11:17:00,
2013-11-02 07:22:00,71.3,69.5,29.85,SSW,196,1.2,1.2,94,0.00,CLR,,0.00,WeatherDisplay:10.37,2013-11-02 11:22:00,
2013-11-02 07:27:00,71.3,69.5,29.85,South,190,1.2,0.0,94,0.00,CLR,,0.00,WeatherDisplay:10.37,2013-11-02 11:27:00,
2013-11-02 07:32:00,71.4,69.6,29.84,South,186,3.5,3.5,94,0.00,CLR,,0.00,WeatherDisplay:10.37,2013-11-02 11:32:00,
2013-11-02 07:37:00,71.6,70.1,29.85,South,186,2.3,2.3,95,0.00,CLR,,0.00,WeatherDisplay:10.37,2013-11-02 11:37:00,
2013-11-02 07:42:00,71.7,70.2,29.85,SSW,197,3.5,3.5,95,0.00,CLR,,0.00,WeatherDisplay:10.37,2013-11-02 11:42:00,
2013-11-02 07:47:00,71.9,70.1,29.84,SSW,205,2.3,2.3,94,0.00,CLR,,0.00,WeatherDisplay:10.37,2013-11-02 11:47:00,
2013-11-02 07:52:00,72.0,70.2,29.85,SSW,205,1.2,1.2,94,0.00,CLR,,0.00,WeatherDisplay:10.37,2013-11-02 11:52:00,
2013-11-02 07:57:00,72.3,70.5,29.85,SW,234,2.3,2.3,94,0.00,CLR,,0.00,WeatherDisplay:10.37,2013-11-02 11:57:00,
2013-11-02 08:02:00,72.3,70.2,29.85,WSW,249,3.5,3.5,93,0.00,CLR,,0.00,WeatherDisplay:10.37,2013-11-02 12:02:00,
2013-11-02 08:07:00,72.3,70.2,29.86,West,273,3.5,3.5,93,0.00,CLR,,0.00,WeatherDisplay:10.37,2013-11-02 12:07:00,
2013-11-02 08:12:00,72.4,70.3,29.86,West,273,3.5,3.5,93,0.00,CLR,,0.00,WeatherDisplay:10.37,2013-11-02 12:12:00,
2013-11-02 08:17:00,72.4,70.6,29.86,West,270,3.5,3.5,94,0.00,CLR,,0.00,WeatherDisplay:10.37,2013-11-02 12:17:00,
2013-11-02 08:22:00,72.5,70.4,29.86,WSW,255,3.5,3.5,93,0.00,CLR,,0.00,WeatherDisplay:10.37,2013-11-02 12:22:00,
2013-11-02 08:27:00,72.8,70.7,29.86,WSW,243,3.5,3.5,93,0.00,CLR,,0.00,WeatherDisplay:10.37,2013-11-02 12:27:00,
2013-11-02 08:32:00,73.1,71.0,29.86,SW,228,2.3,2.3,93,0.00,CLR,,0.00,WeatherDisplay:10.37,2013-11-02 12:32:00,
2013-11-02 08:37:00,73.7,71.5,29.87,SW,214,3.5,3.5,93,0.00,CLR,,0.00,WeatherDisplay:10.37,2013-11-02 12:37:00,
2013-11-02 08:42:00,74.3,71.8,29.87,SW,219,4.0,4.0,92,0.00,CLR,,0.00,WeatherDisplay:10.37,2013-11-02 12:42:00,
2013-11-02 08:47:00,74.6,71.8,29.87,SW,234,3.5,3.5,91,0.00,CLR,,0.00,WeatherDisplay:10.37,2013-11-02 12:47:00,
2013-11-02 08:52:00,74.9,72.1,29.87,SSW,211,5.8,5.8,91,0.00,CLR,,0.00,WeatherDisplay:10.37,2013-11-02 12:52:00,
2013-11-02 08:57:00,75.3,72.2,29.87,SW,215,2.3,2.3,90,0.00,CLR,,0.00,WeatherDisplay:10.37,2013-11-02 12:57:00,
2013-11-02 09:02:00,75.7,72.6,29.87,WSW,237,4.6,4.6,90,0.00,CLR,,0.00,WeatherDisplay:10.37,2013-11-02 13:02:00,
2013-11-02 09:07:00,76.1,72.6,29.87,West,269,5.8,5.8,89,0.00,CLR,,0.00,WeatherDisplay:10.37,2013-11-02 13:07:00,
2013-11-02 09:12:00,76.3,72.5,29.87,SW,223,5.8,5.8,88,0.00,CLR,,0.00,WeatherDisplay:10.37,2013-11-02 13:12:00,
2013-11-02 09:17:00,76.6,72.8,29.87,SW,232,5.8,5.8,88,0.00,CLR,,0.00,WeatherDisplay:10.37,2013-11-02 13:17:00,
2013-11-02 09:22:00,76.9,72.7,29.87,SW,224,5.8,5.8,87,0.00,CLR,,0.00,WeatherDisplay:10.37,2013-11-02 13:22:00,
2013-11-02 09:27:00,77.3,72.8,29.88,West,266,6.0,6.0,86,0.00,CLR,,0.00,WeatherDisplay:10.37,2013-11-02 13:27:00,
2013-11-02 09:32:00,77.5,72.6,29.88,SW,235,11.5,11.5,85,0.00,CLR,,0.00,WeatherDisplay:10.37,2013-11-02 13:32:00,
2013-11-02 09:37:00,77.7,72.8,29.88,SW,228,7.0,7.0,85,0.00,CLR,,0.00,WeatherDisplay:10.37,2013-11-02 13:37:00,
2013-11-02 09:42:00,78.1,72.9,29.88,South,172,9.2,9.2,84,0.00,CLR,,0.00,WeatherDisplay:10.37,2013-11-02 13:42:00,
2013-11-02 09:47:00,78.3,72.7,29.88,SSW,213,11.5,11.5,83,0.00,CLR,,0.00,WeatherDisplay:10.37,2013-11-02 13:47:00,
2013-11-02 09:52:00,78.5,72.5,29.88,South,191,10.4,10.4,82,0.00,CLR,,0.00,WeatherDisplay:10.37,2013-11-02 13:52:00,
2013-11-02 09:57:00,78.9,72.9,29.88,SW,215,6.0,6.0,82,0.00,CLR,,0.00,WeatherDisplay:10.37,2013-11-02 13:57:00,
2013-11-02 10:02:00,79.3,72.6,29.88,West,263,9.2,9.2,80,0.00,CLR,,0.00,WeatherDisplay:10.37,2013-11-02 14:02:00,
2013-11-02 10:07:00,79.2,72.1,29.88,SSW,209,10.4,10.4,79,0.00,CLR,,0.00,WeatherDisplay:10.37,2013-11-02 14:07:00,
2013-11-02 10:12:00,79.6,72.1,29.87,SSW,212,10.4,10.4,78,0.00,CLR,,0.00,WeatherDisplay:10.37,2013-11-02 14:12:00,
2013-11-02 10:17:00,80.0,72.1,29.87,SSW,195,11.5,11.5,77,0.00,CLR,,0.00,WeatherDisplay:10.37,2013-11-02 14:17:00,
2013-11-02 10:22:00,80.2,70.8,29.87,SSE,154,11.5,11.5,73,0.00,CLR,,0.00,WeatherDisplay:10.37,2013-11-02 14:22:00,
2013-11-02 10:27:00,80.6,70.7,29.87,South,184,10.4,10.4,72,0.00,CLR,,0.00,WeatherDisplay:10.37,2013-11-02 14:27:00,
2013-11-02 10:32:00,81.1,70.8,29.88,West,267,5.8,5.8,71,0.00,CLR,,0.00,WeatherDisplay:10.37,2013-11-02 14:32:00,
2013-11-02 10:37:00,81.3,70.2,29.88,South,180,11.0,11.0,69,0.00,CLR,,0.00,WeatherDisplay:10.37,2013-11-02 14:37:00,
2013-11-02 10:42:00,81.8,70.6,29.88,SW,231,6.9,6.9,69,0.00,CLR,,0.00,WeatherDisplay:10.37,2013-11-02 14:42:00,
2013-11-02 10:47:00,81.8,69.8,29.88,SW,221,13.8,13.8,67,0.00,CLR,,0.00,WeatherDisplay:10.37,2013-11-02 14:47:00,
2013-11-02 10:52:00,81.8,69.8,29.88,SW,232,12.7,12.7,67,0.00,CLR,,0.00,WeatherDisplay:10.37,2013-11-02 14:52:00,
2013-11-02 10:57:00,82.0,70.0,29.88,SSW,207,12.7,12.7,67,0.00,CLR,,0.00,WeatherDisplay:10.37,2013-11-02 14:57:00,
2013-11-02 11:02:00,82.3,70.2,29.88,SW,217,11.5,11.5,67,0.00,CLR,,0.00,WeatherDisplay:10.37,2013-11-02 15:02:00,
2013-11-02 11:07:00,82.5,70.0,29.88,West,261,13.8,13.8,66,0.00,CLR,,0.00,WeatherDisplay:10.37,2013-11-02 15:07:00,
2013-11-02 11:12:00,82.4,69.4,29.88,WSW,248,12.7,12.7,65,0.00,CLR,,0.00,WeatherDisplay:10.37,2013-11-02 15:12:00,
2013-11-02 11:17:00,82.4,69.9,29.88,SSW,202,11.5,11.5,66,0.00,CLR,,0.00,WeatherDisplay:10.37,2013-11-02 15:17:00,
2013-11-02 11:22:00,82.6,70.1,29.87,SW,217,4.6,4.6,66,0.00,CLR,,0.00,WeatherDisplay:10.37,2013-11-02 15:22:00,
2013-11-02 11:27:00,83.0,70.9,29.88,West,259,10.4,10.4,67,0.00,CLR,,0.00,WeatherDisplay:10.37,2013-11-02 15:27:00,
2013-11-02 11:32:00,83.7,70.2,29.88,SW,236,12.7,12.7,64,0.00,CLR,,0.00,WeatherDisplay:10.37,2013-11-02 15:32:00,
2013-11-02 11:37:00,83.6,70.1,29.88,SSW,197,9.2,9.2,64,0.00,CLR,,0.00,WeatherDisplay:10.37,2013-11-02 15:37:00,
2013-11-02 11:42:00,83.4,69.5,29.88,West,259,11.5,11.5,63,0.00,CLR,,0.00,WeatherDisplay:10.37,2013-11-02 15:42:00,
2013-11-02 11:47:00,83.4,69.9,29.87,West,263,11.5,11.5,64,0.00,CLR,,0.00,WeatherDisplay:10.37,2013-11-02 15:47:00,
2013-11-02 11:52:00,83.4,69.9,29.87,SSW,206,11.5,11.5,64,0.00,CLR,,0.00,WeatherDisplay:10.37,2013-11-02 15:52:00,
2013-11-02 11:57:00,83.6,70.6,29.87,SW,231,12.7,12.7,65,0.00,CLR,,0.00,WeatherDisplay:10.37,2013-11-02 15:57:00,
2013-11-02 12:02:00,83.9,70.0,29.87,SW,221,15.0,15.0,63,0.00,CLR,,0.00,WeatherDisplay:10.37,2013-11-02 16:02:00,
2013-11-02 12:07:00,83.9,70.0,29.87,SW,226,16.1,16.1,63,0.00,CLR,,0.00,WeatherDisplay:10.37,2013-11-02 16:07:00,
2013-11-02 12:12:00,84.0,70.0,29.86,WSW,258,11.5,11.5,63,0.00,CLR,,0.00,WeatherDisplay:10.37,2013-11-02 16:12:00,
2013-11-02 12:17:00,84.2,70.2,29.86,West,263,10.4,10.4,63,0.00,CLR,,0.00,WeatherDisplay:10.37,2013-11-02 16:17:00,
2013-11-02 12:22:00,84.5,70.0,29.86,WSW,238,11.5,11.5,62,0.00,CLR,,0.00,WeatherDisplay:10.37,2013-11-02 16:22:00,
2013-11-02 12:27:00,84.5,70.0,29.86,WSW,248,6.9,6.9,62,0.00,CLR,,0.00,WeatherDisplay:10.37,2013-11-02 16:27:00,
2013-11-02 12:32:00,84.5,69.1,29.85,SSW,204,8.1,8.1,60,0.00,CLR,,0.00,WeatherDisplay:10.37,2013-11-02 16:32:00,
2013-11-02 12:37:00,84.8,69.4,29.85,SW,227,15.0,15.0,60,0.00,CLR,,0.00,WeatherDisplay:10.37,2013-11-02 16:37:00,
2013-11-02 12:42:00,84.5,69.1,29.85,NW,309,12.7,12.7,60,0.00,CLR,,0.00,WeatherDisplay:10.37,2013-11-02 16:42:00,
2013-11-02 12:47:00,84.6,69.2,29.84,West,277,11.5,11.5,60,0.00,CLR,,0.00,WeatherDisplay:10.37,2013-11-02 16:47:00,
2013-11-02 12:52:00,85.3,68.8,29.84,West,277,9.2,9.2,58,0.00,CLR,,0.00,WeatherDisplay:10.37,2013-11-02 16:52:00,
2013-11-02 12:57:00,85.2,67.7,29.84,WNW,292,12.7,12.7,56,0.00,CLR,,0.00,WeatherDisplay:10.37,2013-11-02 16:57:00,
2013-11-02 13:02:00,85.2,68.2,29.84,West,267,9.2,9.2,57,0.00,CLR,,0.00,WeatherDisplay:10.37,2013-11-02 17:02:00,
2013-11-02 13:07:00,85.8,68.3,29.83,WNW,300,10.4,10.4,56,0.00,CLR,,0.00,WeatherDisplay:10.37,2013-11-02 17:07:00,
2013-11-02 13:12:00,86.1,69.1,29.83,WSW,240,11.5,11.5,57,0.00,CLR,,0.00,WeatherDisplay:10.37,2013-11-02 17:12:00,
2013-11-02 13:17:00,85.6,67.6,29.83,WSW,250,11.5,11.5,55,0.00,CLR,,0.00,WeatherDisplay:10.37,2013-11-02 17:17:00,
2013-11-02 13:22:00,86.0,68.5,29.83,SW,215,10.0,10.0,56,0.00,CLR,,0.00,WeatherDisplay:10.37,2013-11-02 17:22:00,
2013-11-02 13:27:00,86.1,68.0,29.82,SSW,209,6.9,6.9,55,0.00,CLR,,0.00,WeatherDisplay:10.37,2013-11-02 17:27:00,
2013-11-02 13:32:00,86.3,67.2,29.82,NNW,327,9.2,9.2,53,0.00,CLR,,0.00,WeatherDisplay:10.37,2013-11-02 17:32:00,
2013-11-02 13:37:00,86.0,68.0,29.82,SW,236,11.5,11.5,55,0.00,CLR,,0.00,WeatherDisplay:10.37,2013-11-02 17:37:00,
2013-11-02 13:42:00,85.9,67.9,29.82,SW,233,10.4,10.4,55,0.00,CLR,,0.00,WeatherDisplay:10.37,2013-11-02 17:42:00,
2013-11-02 13:47:00,86.1,68.6,29.81,SSW,213,9.2,9.2,56,0.00,CLR,,0.00,WeatherDisplay:10.37,2013-11-02 17:47:00,
2013-11-02 13:52:00,85.7,69.2,29.81,WNW,284,4.0,4.0,58,0.00,CLR,,0.00,WeatherDisplay:10.37,2013-11-02 17:52:00,
2013-11-02 13:57:00,85.5,69.0,29.81,SW,228,10.4,10.4,58,0.00,CLR,,0.00,WeatherDisplay:10.37,2013-11-02 17:57:00,
2013-11-02 14:02:00,85.4,68.9,29.81,WSW,241,3.5,3.5,58,0.00,CLR,,0.00,WeatherDisplay:10.37,2013-11-02 18:02:00,
2013-11-02 14:07:00,85.9,68.9,29.81,West,263,8.1,8.1,57,0.00,CLR,,0.00,WeatherDisplay:10.37,2013-11-02 18:07:00,
2013-11-02 14:12:00,85.7,68.2,29.80,WSW,250,11.5,11.5,56,0.00,CLR,,0.00,WeatherDisplay:10.37,2013-11-02 18:12:00,
2013-11-02 14:17:00,85.3,68.8,29.80,WSW,258,5.8,5.8,58,0.00,CLR,,0.00,WeatherDisplay:10.37,2013-11-02 18:17:00,
2013-11-02 14:22:00,85.6,68.1,29.80,WSW,247,9.2,9.2,56,0.00,CLR,,0.00,WeatherDisplay:10.37,2013-11-02 18:22:00,
2013-11-02 14:27:00,85.8,68.8,29.80,West,262,4.0,4.0,57,0.00,CLR,,0.00,WeatherDisplay:10.37,2013-11-02 18:27:00,
2013-11-02 14:32:00,86.0,69.0,29.80,West,280,9.0,9.0,57,0.00,CLR,,0.00,WeatherDisplay:10.37,2013-11-02 18:32:00,
2013-11-02 14:37:00,86.2,68.7,29.79,SW,236,6.9,6.9,56,0.00,CLR,,0.00,WeatherDisplay:10.37,2013-11-02 18:37:00,
2013-11-02 14:42:00,86.2,67.6,29.79,WSW,244,11.5,11.5,54,0.00,CLR,,0.00,WeatherDisplay:10.37,2013-11-02 18:42:00,
2013-11-02 14:47:00,86.2,67.6,29.79,WSW,243,15.0,15.0,54,0.00,CLR,,0.00,WeatherDisplay:10.37,2013-11-02 18:47:00,
2013-11-02 14:52:00,86.5,68.4,29.79,West,265,6.9,6.9,55,0.00,CLR,,0.00,WeatherDisplay:10.37,2013-11-02 18:52:00,
2013-11-02 14:57:00,86.6,67.4,29.79,South,186,10.4,10.4,53,0.00,CLR,,0.00,WeatherDisplay:10.37,2013-11-02 18:57:00,
2013-11-02 15:02:00,86.6,68.0,29.78,SW,221,5.0,5.0,54,0.00,CLR,,0.00,WeatherDisplay:10.37,2013-11-02 19:02:00,
2013-11-02 15:07:00,86.6,68.0,29.78,WSW,239,6.9,6.9,54,0.00,CLR,,0.00,WeatherDisplay:10.37,2013-11-02 19:07:00,
2013-11-02 15:12:00,86.7,68.1,29.78,WSW,248,6.9,6.9,54,0.00,CLR,,0.00,WeatherDisplay:10.37,2013-11-02 19:12:00,
2013-11-02 15:17:00,87.0,68.3,29.78,West,259,4.6,4.6,54,0.00,CLR,,0.00,WeatherDisplay:10.37,2013-11-02 19:17:00,
2013-11-02 15:22:00,87.4,67.1,29.77,West,278,11.5,11.5,51,0.00,CLR,,0.00,WeatherDisplay:10.37,2013-11-02 19:22:00,
2013-11-02 15:27:00,87.3,67.5,29.77,NNW,333,5.8,5.8,52,0.00,CLR,,0.00,WeatherDisplay:10.37,2013-11-02 19:27:00,
2013-11-02 15:32:00,87.8,68.0,29.77,South,180,5.8,5.8,52,0.00,CLR,,0.00,WeatherDisplay:10.37,2013-11-02 19:32:00,
2013-11-02 15:37:00,87.9,68.6,29.77,SW,236,5.8,5.8,53,0.00,CLR,,0.00,WeatherDisplay:10.37,2013-11-02 19:37:00,
2013-11-02 15:42:00,87.5,65.4,29.77,WNW,301,9.2,9.2,48,0.00,CLR,,0.00,WeatherDisplay:10.37,2013-11-02 19:42:00,
2013-11-02 15:47:00,88.0,67.0,29.77,West,272,5.8,5.8,50,0.00,CLR,,0.00,WeatherDisplay:10.37,2013-11-02 19:47:00,
2013-11-02 15:52:00,88.1,65.9,29.77,WNW,290,10.4,10.4,48,0.00,CLR,,0.00,WeatherDisplay:10.37,2013-11-02 19:52:00,
2013-11-02 15:57:00,88.1,67.1,29.77,West,279,5.8,5.8,50,0.00,CLR,,0.00,WeatherDisplay:10.37,2013-11-02 19:57:00,
2013-11-02 16:02:00,88.0,65.8,29.77,West,263,3.5,3.5,48,0.00,CLR,,0.00,WeatherDisplay:10.37,2013-11-02 20:02:00,
2013-11-02 16:07:00,87.7,66.8,29.77,WNW,290,4.6,4.6,50,0.00,CLR,,0.00,WeatherDisplay:10.37,2013-11-02 20:07:00,
2013-11-02 16:12:00,87.4,65.9,29.77,WSW,242,3.5,3.5,49,0.00,CLR,,0.00,WeatherDisplay:10.37,2013-11-02 20:12:00,
2013-11-02 16:17:00,87.2,66.3,29.77,WNW,301,8.1,8.1,50,0.00,CLR,,0.00,WeatherDisplay:10.37,2013-11-02 20:17:00,
2013-11-02 16:22:00,87.7,66.8,29.77,WNW,290,6.9,6.9,50,0.00,CLR,,0.00,WeatherDisplay:10.37,2013-11-02 20:22:00,
2013-11-02 16:27:00,88.1,67.1,29.77,WNW,282,5.0,5.0,50,0.00,CLR,,0.00,WeatherDisplay:10.37,2013-11-02 20:27:00,
2013-11-02 16:32:00,88.4,67.4,29.77,WNW,282,5.0,5.0,50,0.00,CLR,,0.00,WeatherDisplay:10.37,2013-11-02 20:32:00,
2013-11-02 16:37:00,88.3,67.3,29.77,WNW,298,9.2,9.2,50,0.00,CLR,,0.00,WeatherDisplay:10.37,2013-11-02 20:37:00,
2013-11-02 16:42:00,88.0,67.0,29.77,West,270,9.0,9.0,50,0.00,CLR,,0.00,WeatherDisplay:10.37,2013-11-02 20:42:00,
2013-11-02 16:47:00,87.1,66.8,29.77,West,278,5.8,5.8,51,0.00,CLR,,0.00,WeatherDisplay:10.37,2013-11-02 20:47:00,
2013-11-02 16:52:00,86.9,67.7,29.77,WSW,248,6.9,6.9,53,0.00,CLR,,0.00,WeatherDisplay:10.37,2013-11-02 20:52:00,
2013-11-02 16:57:00,86.7,67.0,29.77,WNW,292,11.5,11.5,52,0.00,CLR,,0.00,WeatherDisplay:10.37,2013-11-02 20:57:00,
2013-11-02 17:02:00,86.1,67.5,29.77,West,280,6.9,6.9,54,0.00,CLR,,0.00,WeatherDisplay:10.37,2013-11-02 21:02:00,
2013-11-02 17:07:00,85.6,67.6,29.77,NW,321,3.5,3.5,55,0.00,CLR,,0.00,WeatherDisplay:10.37,2013-11-02 21:07:00,
2013-11-02 17:12:00,85.3,67.8,29.77,NW,321,5.8,5.8,56,0.00,CLR,,0.00,WeatherDisplay:10.37,2013-11-02 21:12:00,
2013-11-02 17:17:00,85.0,68.6,29.77,NW,306,11.5,11.5,58,0.00,CLR,,0.00,WeatherDisplay:10.37,2013-11-02 21:17:00,
2013-11-02 17:22:00,84.7,69.3,29.78,WNW,285,16.1,16.1,60,0.00,CLR,,0.00,WeatherDisplay:10.37,2013-11-02 21:22:00,
2013-11-02 17:27:00,83.9,70.4,29.78,NW,310,11.5,11.5,64,0.00,CLR,,0.00,WeatherDisplay:10.37,2013-11-02 21:27:00,
2013-11-02 17:32:00,83.1,70.1,29.78,WNW,300,11.5,11.5,65,0.00,CLR,,0.00,WeatherDisplay:10.37,2013-11-02 21:32:00,
2013-11-02 17:37:00,82.5,70.4,29.78,NNW,347,6.9,6.9,67,0.00,CLR,,0.00,WeatherDisplay:10.37,2013-11-02 21:37:00,
2013-11-02 17:42:00,82.0,70.8,29.78,NW,311,10.4,10.4,69,0.00,CLR,,0.00,WeatherDisplay:10.37,2013-11-02 21:42:00,
2013-11-02 17:47:00,81.6,70.9,29.78,NW,310,10.4,10.4,70,0.00,CLR,,0.00,WeatherDisplay:10.37,2013-11-02 21:47:00,
2013-11-02 17:52:00,81.2,71.3,29.78,NW,325,9.2,9.2,72,0.00,CLR,,0.00,WeatherDisplay:10.37,2013-11-02 21:52:00,
2013-11-02 17:57:00,80.8,70.9,29.78,NW,323,11.5,11.5,72,0.00,CLR,,0.00,WeatherDisplay:10.37,2013-11-02 21:57:00,
2013-11-02 18:02:00,80.3,70.4,29.78,NW,321,11.5,11.5,72,0.00,CLR,,0.00,WeatherDisplay:10.37,2013-11-02 22:02:00,
2013-11-02 18:07:00,80.0,70.6,29.79,NW,316,11.5,11.5,73,0.00,CLR,,0.00,WeatherDisplay:10.37,2013-11-02 22:07:00,
2013-11-02 18:12:00,79.8,70.4,29.79,WNW,298,6.9,6.9,73,0.00,CLR,,0.00,WeatherDisplay:10.37,2013-11-02 22:12:00,
2013-11-02 18:17:00,79.7,70.3,29.79,NNW,337,9.2,9.2,73,0.00,CLR,,0.00,WeatherDisplay:10.37,2013-11-02 22:17:00,
2013-11-02 18:22:00,79.5,70.5,29.80,WNW,293,5.8,5.8,74,0.00,CLR,,0.00,WeatherDisplay:10.37,2013-11-02 22:22:00,
2013-11-02 18:27:00,79.2,70.6,29.80,NW,312,6.9,6.9,75,0.00,CLR,,0.00,WeatherDisplay:10.37,2013-11-02 22:27:00,
2013-11-02 18:32:00,78.9,70.7,29.80,NW,322,6.0,6.0,76,0.00,CLR,,0.00,WeatherDisplay:10.37,2013-11-02 22:32:00,
2013-11-02 18:37:00,78.7,70.5,29.80,NW,309,4.6,4.6,76,0.00,CLR,,0.00,WeatherDisplay:10.37,2013-11-02 22:37:00,
2013-11-02 18:42:00,78.5,70.3,29.81,NNW,328,2.3,2.3,76,0.00,CLR,,0.00,WeatherDisplay:10.37,2013-11-02 22:42:00,
2013-11-02 18:47:00,78.2,70.4,29.81,NNW,333,3.5,3.5,77,0.00,CLR,,0.00,WeatherDisplay:10.37,2013-11-02 22:47:00,
2013-11-02 18:52:00,78.1,70.3,29.81,WNW,298,3.5,3.5,77,0.00,CLR,,0.00,WeatherDisplay:10.37,2013-11-02 22:52:00,
2013-11-02 18:57:00,77.9,70.5,29.81,NNW,333,1.2,1.2,78,0.00,CLR,,0.00,WeatherDisplay:10.37,2013-11-02 22:57:00,
2013-11-02 19:02:00,77.8,70.4,29.82,NNW,332,2.3,2.3,78,0.00,CLR,,0.00,WeatherDisplay:10.37,2013-11-02 23:02:00,
2013-11-02 19:07:00,77.7,70.7,29.81,NW,324,3.5,3.5,79,0.00,CLR,,0.00,WeatherDisplay:10.37,2013-11-02 23:07:00,
2013-11-02 19:12:00,77.7,70.7,29.82,NW,310,2.3,2.3,79,0.00,CLR,,0.00,WeatherDisplay:10.37,2013-11-02 23:12:00,
2013-11-02 19:17:00,77.6,70.6,29.82,NW,318,4.0,4.0,79,0.00,CLR,,0.00,WeatherDisplay:10.37,2013-11-02 23:17:00,
2013-11-02 19:22:00,77.6,70.6,29.82,NNW,327,2.3,2.3,79,0.00,CLR,,0.00,WeatherDisplay:10.37,2013-11-02 23:22:00,
2013-11-02 19:27:00,77.5,70.8,29.83,NW,317,3.5,3.5,80,0.00,CLR,,0.00,WeatherDisplay:10.37,2013-11-02 23:27:00,
2013-11-02 19:32:00,77.5,70.8,29.83,NW,320,3.5,3.5,80,0.00,CLR,,0.00,WeatherDisplay:10.37,2013-11-02 23:32:00,
2013-11-02 19:37:00,77.5,70.8,29.83,NW,321,2.3,2.3,80,0.00,CLR,,0.00,WeatherDisplay:10.37,2013-11-02 23:37:00,
2013-11-02 19:42:00,77.5,70.8,29.84,NW,321,1.2,1.2,80,0.00,CLR,,0.00,WeatherDisplay:10.37,2013-11-02 23:42:00,
2013-11-02 19:47:00,77.5,70.8,29.84,NW,323,3.5,3.5,80,0.00,CLR,,0.00,WeatherDisplay:10.37,2013-11-02 23:47:00,
2013-11-02 19:52:00,77.4,70.7,29.84,NNW,342,3.0,0.0,80,0.00,CLR,,0.00,WeatherDisplay:10.37,2013-11-02 23:52:00,
2013-11-02 19:57:00,77.4,70.7,29.84,NNW,345,2.3,2.3,80,0.00,CLR,,0.00,WeatherDisplay:10.37,2013-11-02 23:57:00,
2013-11-02 20:02:00,77.3,71.0,29.84,North,10,2.0,2.0,81,0.00,CLR,,0.00,WeatherDisplay:10.37,2013-11-03 00:02:00,
2013-11-02 20:07:00,77.1,70.8,29.84,ENE,57,1.2,1.2,81,0.00,CLR,,0.00,WeatherDisplay:10.37,2013-11-03 00:07:00,
2013-11-02 20:12:00,77.0,70.7,29.85,NE,40,2.3,2.3,81,0.00,CLR,,0.00,WeatherDisplay:10.37,2013-11-03 00:12:00,
2013-11-02 20:17:00,76.9,70.6,29.85,NE,40,2.3,2.3,81,0.00,CLR,,0.00,WeatherDisplay:10.37,2013-11-03 00:17:00,
2013-11-02 20:22:00,76.7,70.8,29.85,NE,40,1.2,1.2,82,0.00,CLR,,0.00,WeatherDisplay:10.37,2013-11-03 00:22:00,
2013-11-02 20:27:00,76.7,70.8,29.86,NE,39,2.3,2.3,82,0.00,CLR,,0.00,WeatherDisplay:10.37,2013-11-03 00:27:00,
2013-11-02 20:32:00,76.5,70.6,29.86,North,355,3.5,3.5,82,0.00,CLR,,0.00,WeatherDisplay:10.37,2013-11-03 00:32:00,
2013-11-02 20:37:00,76.4,70.5,29.86,NNW,347,3.5,3.5,82,0.00,CLR,,0.00,WeatherDisplay:10.37,2013-11-03 00:37:00,
2013-11-02 20:42:00,76.3,70.4,29.86,North,360,3.5,3.5,82,0.00,CLR,,0.00,WeatherDisplay:10.37,2013-11-03 00:42:00,
2013-11-02 20:47:00,76.2,70.7,29.86,NNW,344,2.3,2.3,83,0.00,CLR,,0.00,WeatherDisplay:10.37,2013-11-03 00:47:00,
2013-11-02 20:52:00,76.1,70.2,29.86,NNE,13,3.5,3.5,82,0.00,CLR,,0.00,WeatherDisplay:10.37,2013-11-03 00:52:00,
2013-11-02 20:57:00,76.0,70.1,29.87,NNE,20,2.3,2.3,82,0.00,CLR,,0.00,WeatherDisplay:10.37,2013-11-03 00:57:00,
2013-11-02 21:02:00,76.0,70.5,29.87,North,9,3.5,3.5,83,0.00,CLR,,0.00,WeatherDisplay:10.37,2013-11-03 01:02:00,
2013-11-02 21:07:00,75.9,70.4,29.87,North,355,4.0,4.0,83,0.00,CLR,,0.00,WeatherDisplay:10.37,2013-11-03 01:07:00,
2013-11-02 21:12:00,75.7,70.2,29.87,North,350,4.6,4.6,83,0.00,CLR,,0.00,WeatherDisplay:10.37,2013-11-03 01:12:00,
2013-11-02 21:17:00,75.6,70.1,29.88,North,5,7.0,7.0,83,0.00,CLR,,0.00,WeatherDisplay:10.37,2013-11-03 01:17:00,
2013-11-02 21:22:00,75.5,70.0,29.88,North,9,4.0,4.0,83,0.00,CLR,,0.00,WeatherDisplay:10.37,2013-11-03 01:22:00,
2013-11-02 21:27:00,75.5,70.0,29.88,North,360,3.5,3.5,83,0.00,CLR,,0.00,WeatherDisplay:10.37,2013-11-03 01:27:00,
2013-11-02 21:32:00,75.4,69.5,29.88,WNW,302,12.7,12.7,82,0.00,CLR,,0.00,WeatherDisplay:10.37,2013-11-03 01:32:00,
2013-11-02 21:37:00,75.2,69.0,29.88,NNW,337,11.5,11.5,81,0.00,CLR,,0.00,WeatherDisplay:10.37,2013-11-03 01:37:00,
2013-11-02 21:42:00,75.1,68.9,29.88,NW,316,11.5,11.5,81,0.00,CLR,,0.00,WeatherDisplay:10.37,2013-11-03 01:42:00,
2013-11-02 21:47:00,74.9,68.7,29.88,NNW,335,10.0,10.0,81,0.00,CLR,,0.00,WeatherDisplay:10.37,2013-11-03 01:47:00,
2013-11-02 21:52:00,74.7,68.5,29.88,NW,309,4.6,4.6,81,0.00,CLR,,0.00,WeatherDisplay:10.37,2013-11-03 01:52:00,
2013-11-02 21:57:00,74.5,67.9,29.88,NW,321,6.9,6.9,80,0.00,CLR,,0.00,WeatherDisplay:10.37,2013-11-03 01:57:00,
2013-11-02 22:02:00,74.2,65.4,29.89,NW,323,6.9,6.9,74,0.00,CLR,,0.00,WeatherDisplay:10.37,2013-11-03 02:02:00,
2013-11-02 22:07:00,73.8,63.4,29.89,NW,323,10.4,10.4,70,0.00,CLR,,0.00,WeatherDisplay:10.37,2013-11-03 02:07:00,
2013-11-02 22:12:00,73.4,63.4,29.89,WNW,301,10.4,10.4,71,0.00,CLR,,0.00,WeatherDisplay:10.37,2013-11-03 02:12:00,
2013-11-02 22:17:00,73.1,63.5,29.89,NNW,333,8.1,8.1,72,0.00,CLR,,0.00,WeatherDisplay:10.37,2013-11-03 02:17:00,
2013-11-02 22:22:00,73.0,63.8,29.89,NNW,331,4.6,4.6,73,0.00,CLR,,0.00,WeatherDisplay:10.37,2013-11-03 02:22:00,
2013-11-02 22:27:00,72.8,64.0,29.89,NW,319,5.8,5.8,74,0.00,CLR,,0.00,WeatherDisplay:10.37,2013-11-03 02:27:00,
2013-11-02 22:32:00,72.6,63.1,29.89,North,350,10.0,10.0,72,0.00,CLR,,0.00,WeatherDisplay:10.37,2013-11-03 02:32:00,
2013-11-02 22:37:00,72.2,62.3,29.89,North,360,15.0,15.0,71,0.00,CLR,,0.00,WeatherDisplay:10.37,2013-11-03 02:37:00,
2013-11-02 22:42:00,72.0,62.5,29.89,North,355,11.5,11.5,72,0.00,CLR,,0.00,WeatherDisplay:10.37,2013-11-03 02:42:00,
2013-11-02 22:47:00,71.7,62.6,29.89,North,5,11.5,11.5,73,0.00,CLR,,0.00,WeatherDisplay:10.37,2013-11-03 02:47:00,
2013-11-02 22:52:00,71.4,62.3,29.89,NNW,342,5.8,5.8,73,0.00,CLR,,0.00,WeatherDisplay:10.37,2013-11-03 02:52:00,
2013-11-02 22:57:00,71.2,62.5,29.89,NNE,18,11.5,11.5,74,0.00,CLR,,0.00,WeatherDisplay:10.37,2013-11-03 02:57:00,
2013-11-02 23:02:00,70.9,62.6,29.89,NNE,28,3.5,3.5,75,0.00,CLR,,0.00,WeatherDisplay:10.37,2013-11-03 03:02:00,
2013-11-02 23:07:00,70.6,62.3,29.89,NNW,346,12.7,12.7,75,0.00,CLR,,0.00,WeatherDisplay:10.37,2013-11-03 03:07:00,
2013-11-02 23:12:00,70.2,62.6,29.89,NNW,334,6.9,6.9,77,0.00,CLR,,0.00,WeatherDisplay:10.37,2013-11-03 03:12:00,
2013-11-02 23:17:00,70.0,62.5,29.89,North,10,9.2,9.2,77,0.00,CLR,,0.00,WeatherDisplay:10.37,2013-11-03 03:17:00,
2013-11-02 23:22:00,69.8,62.3,29.89,NNE,26,7.0,7.0,77,0.00,CLR,,0.00,WeatherDisplay:10.37,2013-11-03 03:22:00,
2013-11-02 23:27:00,69.6,62.4,29.89,NNE,17,4.6,4.6,78,0.00,CLR,,0.00,WeatherDisplay:10.37,2013-11-03 03:27:00,
2013-11-02 23:32:00,69.5,62.7,29.88,NNW,346,9.2,9.2,79,0.00,CLR,,0.00,WeatherDisplay:10.37,2013-11-03 03:32:00,
2013-11-02 23:37:00,69.4,62.6,29.88,NNW,344,5.8,5.8,79,0.00,CLR,,0.00,WeatherDisplay:10.37,2013-11-03 03:37:00,
2013-11-02 23:42:00,69.2,62.4,29.89,NNW,342,6.0,6.0,79,0.00,CLR,,0.00,WeatherDisplay:10.37,2013-11-03 03:42:00,
2013-11-02 23:47:00,69.1,62.7,29.89,North,5,10.4,10.4,80,0.00,CLR,,0.00,WeatherDisplay:10.37,2013-11-03 03:47:00,
2013-11-02 23:52:00,68.9,62.8,29.89,North,5,11.5,11.5,81,0.00,CLR,,0.00,WeatherDisplay:10.37,2013-11-03 03:52:00,
2013-11-02 23:57:00,68.8,62.7,29.89,NW,318,9.2,9.2,81,0.00,CLR,,0.00,WeatherDisplay:10.37,2013-11-03 03:57:00,